Home   Weather   Brăila   Past weeks

Flag for Romania Past Weather in Brăila, Romania — Yesterday and Last 2 Weeks

Now
51 °F

Clear.


Feels Like: 51 °F
Forecast: 49 / 66 °F
Wind: 2 mph from Northwest

Location: Galati

Current Time: Sep 26, 2016 at 6:45:29 AM

Latest Report: Sep 26, 2016 at 6:00 AM


Visibility: 6 mi

Pressure: 30.11 "Hg

Humidity: 89%

Dew Point: 48 °F

Location of BrăilaLocation

Past Weather in Brăila — Graph

°F

Brăila Temperature Yesterday

Maximum temperature yesterday: 62 °F (at 4:00 PM)
Minimum temperature yesterday: 53 °F (at 8:00 AM)
Average temperature yesterday: 57 °F

High & Low Weather Summary for the Past Weeks

 TemperatureHumidityPressure
High90 °F (Sep 13, 4:00 PM)100% (Sep 11, 5:00 AM)30.32 "Hg (Sep 11, 5:00 AM)
Low43 °F (Sep 22, 7:00 AM)23% (Sep 12, 3:00 PM)29.65 "Hg (Sep 20, 4:00 AM)
Average65 °F67%30.01 "Hg
* Reported Sep 11 5:00 AM — Sep 26 5:00 AM, Brăila, Weather by CustomWeather, © 2016

Note: Actual official high and low records may vary slightly from our data, if they occured in-between our weather recording intervals... More about our weather records

Advertising

Brăila Weather History for the Previous 24 Hours

Scroll right to see more
 ConditionsComfort  
Time TempWeatherWind HumidityBarometerVisibility
5:00 AM
Mon, Sep 26
50 °FClear.1 mph91%30.11 "Hg6 mi
4:00 AM50 °FClear.1 mph93%30.12 "Hg6 mi
3:00 AM52 °FClear.1 mph88%30.13 "Hg6 mi
2:00 AM54 °FClear.2 mph85%30.13 "Hg6 mi
1:00 AM55 °FClear.2 mph84%30.13 "Hg6 mi
12:00 AM54 °FClear.2 mph89%30.13 "Hg6 mi
11:00 PM
Sun, Sep 25
54 °FClear.1 mph91%30.13 "Hg6 mi
10:00 PM56 °FPassing clouds.1 mph82%30.14 "Hg12 mi
9:00 PM57 °FPassing clouds.2 mph83%30.13 "Hg12 mi
8:00 PM58 °FOvercast.2 mph83%30.13 "Hg12 mi
7:00 PM59 °FPassing clouds.2 mph80%30.12 "Hg12 mi
6:00 PM61 °FPartly sunny.2 mph71%30.11 "Hg12 mi
5:00 PM61 °FPartly sunny.1 mph69%30.12 "Hg12 mi
4:00 PM62 °FOvercast.1 mph73%30.13 "Hg12 mi
3:00 PM60 °FOvercast.2 mph78%30.15 "Hg6 mi
2:00 PM59 °FOvercast.2 mph89%30.16 "Hg6 mi
1:00 PM57 °FLight rain. Overcast.2 mph96%30.18 "Hg6 mi
12:00 PM55 °FOvercast.3 mph97%30.19 "Hg6 mi
11:00 AM55 °FLight rain. Overcast.2 mph97%30.20 "Hg6 mi
10:00 AM55 °FLight rain. Overcast.2 mph93%30.20 "Hg6 mi
9:00 AM55 °FOvercast.1 mph91%30.19 "Hg6 mi
8:00 AM53 °FOvercast.2 mph94%30.18 "Hg6 mi
7:00 AM55 °FOvercast.2 mph83%30.17 "Hg12 mi
6:00 AM54 °FOvercast.1 mph85%30.17 "Hg12 mi
Weather by CustomWeather, © 2016

See weather overviewHow to use our weather pages